Location: Campillo
(40.8621°N, 4.2488°W)
Time: 13:22:07
(UTC+00:00)

USA 308 - Pass Details

Date: 20 September 2021
Orbit: 566 x 573 km, 54.0° (Epoch: 23 September)

Event Time Altitude Azimuth Distance (km) Brightness Sun altitude
Rises 20:56:09 0° 309° (NW) 2,772 7.6 -29.5°
Reaches altitude 10° 20:59:18 10° 333° (NNW) 1,875 6.2 -30.0°
Enters shadow 21:01:17 15° 1° (N) 1,599 5.5 -30.3°
